Location: Coste?ti-Deal
(45.7333°N, 23.1667°E)
Time: 13:53:45
(UTC+00:00)

Daily predictions for brighter satellites

Satellite Brightness Start Highest point End
(mag) Time Altitude Azimuth Time Altitude Azimuth Time Altitude Azimuth
Cosmos 1980 Rocket 3.3 18:48:02 10° NW 18:53:23 43° WSW 18:58:40 10° S
Cosmos 2322 Rocket 3.2 18:50:05 10° NNW 18:55:18 36° NE 19:00:30 10° ESE
IRIDIUM 114 4.5 18:50:40 10° N 18:55:55 82° W 19:01:08 10° S
COSMOS 2406 3.7 18:52:26 10° SSW 18:58:09 71° WNW 19:03:55 10° NNE
CZ-4C R/B 3.5 18:56:08 10° NNE 19:00:16 62° ESE 19:04:20 10° S
Meteor 2-10 Rocket 4.5 18:56:18 10° N 19:01:24 35° ENE 19:06:16 10° SE
ARGOS Delta rocket 3.7 18:59:19 10° SSE 19:03:44 68° ENE 19:08:07 10° N
Cosmos 1553 Rocket 4.1 19:00:19 10° N 19:06:32 87° W 19:12:48 10° S
Cosmos 2278 3.8 19:02:24 10° NNW 19:08:10 82° ENE 19:13:52 10° SSE
Cosmos 1674 3.6 19:05:11 10° SSW 19:08:31 45° WNW 19:11:52 10° N
Cosmos 468 Rocket 4.2 19:04:49 10° NNW 19:10:03 74° WSW 19:15:11 10° SSE
S3M 4.3 19:04:05 10° N 19:10:21 57° ENE 19:16:31 10° SSE
Cosmos 1733 Rocket 4.4 19:08:46 10° NNE 19:12:25 25° ENE 19:15:59 10° SE
SL-4 R/B 3.5 19:09:46 10° WNW 19:13:17 35° N 19:17:02 10° ENE
Ariane Rocket 3.6 19:08:58 10° SE 19:13:45 43° ENE 19:18:34 10° N
BREEZE-M DEB (TANK) 4.3 19:11:41 10° W 19:15:53 79° SSW 19:29:49 10° ESE
BREEZE-M DEB (TANK) 2.1 19:13:48 10° WSW 19:16:01 74° SSE 19:19:30 10° ENE
Meteor 1-13 Rocket 4.3 19:11:58 10° S 19:17:45 77° E 19:23:26 10° NNE
Okean-O 3.3 19:15:02 10° S 19:19:20 52° W 19:23:40 10° NNW
Cosmos 2219 Rocket 3.7 19:15:10 10° N 19:19:48 25° NE 19:24:27 10° ESE
Cosmos 2266 Rocket 4.1 19:13:54 10° S 19:20:07 64° E 19:26:27 10° NNE
Cosmos 1300 3.6 19:17:32 10° NNE 19:20:42 29° ENE 19:23:20 13° SE
Cosmos 1400 Rocket 2.8 19:20:42 10° S 19:24:30 57° E 19:28:18 10° NNE
SL-27 R/B 3.3 19:23:03 14° SE 19:24:30 21° ESE 19:26:40 10° NE
Cosmos 2237 4.3 19:19:00 10° NNW 19:24:47 85° WSW 19:30:18 11° SSE
Cosmos 1441 Rocket 3.4 19:21:41 10° NNW 19:25:16 64° W 19:28:53 10° S
Cosmos 1655 Rocket 4.4 19:19:19 10° SSE 19:25:24 49° E 19:31:31 10° NNE
Cosmos 540 Rocket 4.3 19:21:10 10° NNW 19:26:06 48° WSW 19:31:00 10° S
Cosmos 1850 Rocket 4.3 19:22:19 10° S 19:27:18 47° ESE 19:32:17 10° NNE
Cosmos 1356 Rocket 4.2 19:23:41 11° SSE 19:27:19 34° E 19:31:09 10° NNE
USA 245 3.3 19:24:51 12° SSE 19:28:06 75° ENE 19:32:30 10° N
ATLAS CENTAUR R/B 1.3 19:27:20 10° S 19:30:37 41° ESE 19:34:00 10° NE
Cosmos 1908 3.7 19:27:28 10° NNW 19:31:00 52° W 19:34:31 10° S
MOS 1 Rocket 3.7 19:31:12 12° SSE 19:36:12 68° ENE 19:41:27 10° N
Cosmos 1869 Rocket 3.8 19:32:12 10° NNW 19:36:39 74° W 19:41:05 10° S
Cosmos 2228 Rocket 3.5 19:32:28 11° SSE 19:36:42 48° E 19:41:06 10° NNE
Okean O Rocket 4.0 19:35:37 10° SW 19:38:43 19° W 19:41:50 10° NW
Cosmos 968 Rocket 3.9 19:36:17 10° S 19:41:05 42° ESE 19:45:59 10° NE
IRS-1C Rocket 4.5 19:35:56 10° S 19:41:08 62° WSW 19:46:21 10° NNW
Meteor 1-4 Rocket 3.8 19:41:08 16° ESE 19:41:55 17° E 19:43:58 10° NE
SPOT 3 Rocket 3.6 19:37:40 14° SSE 19:42:09 70° ENE 19:47:19 10° N
SeaSat 1 2.5 19:39:21 14° SSE 19:43:38 78° WSW 19:48:34 10° NNW
Cosmos 1953 4.2 19:41:12 10° NNE 19:43:44 17° ENE 19:45:44 12° ESE
Cosmos 1315 Rocket 4.4 19:42:13 15° ESE 19:43:52 19° E 19:46:43 10° NE
Cosmos 2360 Rocket 2.4 19:39:38 10° NNW 19:45:18 63° ENE 19:49:45 16° SE
Cosmos 1741 Rocket 4.0 19:42:29 10° S 19:47:42 67° ESE 19:52:58 10° NNE
SPOT 5 3.9 19:46:38 10° SSW 19:50:36 36° W 19:54:41 10° NNW
EXPRESS MD2 3.6 19:50:46 10° W 19:53:24 38° NNW 19:55:29 10° ENE
USA 234 3.2 19:48:37 10° NE 19:55:12 86° SE 20:01:45 10° SW
Meteor 1-23 Rocket 4.3 19:50:28 10° S 19:56:08 86° W 20:01:55 10° N
BlueWalker 3 3.7 19:57:39 15° ESE 19:57:39 15° ESE 19:58:52 10° E
SL-16 R/B 2.7 19:51:33 10° NW 19:57:05 55° WSW 20:01:48 14° S
Landsat 4 3.5 19:56:28 19° S 19:58:49 75° WSW 20:02:16 10° NNW
Cosmos 2333 Rocket 2.3 19:55:13 10° NNW 20:00:59 76° ENE 20:05:09 20° SSE
Landsat 5 3.6 20:01:19 10° NNE 20:05:17 55° E 20:07:59 20° S
SL-14 R/B 3.3 20:04:14 12° SSW 20:07:42 72° W 20:11:30 10° N
Cosmos 2315 Rocket 4.1 20:01:26 10° N 20:07:50 81° W 20:13:14 15° S
Cosmos 1862 Rocket 3.5 20:05:38 16° S 20:09:02 76° E 20:13:28 10° NNE
Okean 3 3.4 20:09:59 21° S 20:12:39 66° E 20:16:48 10° NNE
Atlas Centaur 2 4.2 20:07:13 10° WSW 20:13:13 23° SSW 20:16:21 18° SSE
Cosmos 1833 4.1 20:08:02 10° SSW 20:13:38 71° ESE 20:19:14 10° NNE
Cosmos 1346 Rocket 2.8 20:10:00 10° NNW 20:13:51 73° W 20:16:09 23° S
ERS-1 Rocket 4.1 20:10:01 10° SSW 20:14:43 39° W 20:19:25 10° NNW
Cosmos 1932 4.5 20:11:23 10° SSW 20:17:36 61° ESE 20:23:47 10° NE
Cosmos 2237 Rocket 4.4 20:16:15 10° N 20:19:50 17° NE 20:23:23 10° E
Cosmos 1455 3.0 20:16:57 10° N 20:20:10 33° ENE 20:21:19 26° ESE
Meteor 2-20 4.5 20:17:24 10° N 20:23:36 85° W 20:28:01 20° S
Meteor 1-16 Rocket 4.3 20:18:05 10° N 20:24:02 79° ENE 20:27:52 23° SSE
RESURS DK-1 3.6 20:21:09 10° NW 20:24:48 32° WSW 20:27:05 18° SSW
H-2A R/B 4.4 20:22:42 13° E 20:24:56 19° ENE 20:27:58 10° NNE
Terra 3.1 20:21:54 11° SSW 20:25:55 34° W 20:30:13 10° NNW
SJ 16-02 1.2 20:23:40 17° SSW 20:26:56 83° ESE 20:31:16 10° NNE
Cosmos 1707 Rocket 4.2 20:25:27 11° SSW 20:29:33 55° WNW 20:33:56 10° N
Aureole 3 3.5 20:27:07 21° SSW 20:29:41 81° W 20:34:34 10° N
CZ-2C R/B 4.4 20:25:47 10° NNE 20:29:52 36° E 20:31:21 28° SE
Cosmos 2333 4.2 20:24:10 10° NNW 20:29:58 85° WSW 20:33:27 25° SSE
Cosmos 2322 Rocket 3.1 20:34:07 10° NW 20:39:24 40° WSW 20:42:59 19° SSW
ATLAS 2AS CENTAUR R/B 2.8 20:33:32 10° NW 20:40:15 64° WSW 20:44:10 25° SSE
Cosmos 839 Rocket 4.0 20:34:19 10° NW 20:41:14 85° WSW 20:44:53 26° SSE
BREEZE-M DEB (TANK) 4.4 20:38:21 10° W 20:42:56 75° N 21:02:51 10° E
Cosmos 2297 Rocket 3.7 20:45:31 17° ESE 20:46:27 18° E 20:50:08 10° ENE
ARIANE 5 R/B 2.9 20:45:49 32° SE 20:47:34 54° ENE 20:51:49 10° N
Cosmos 1733 Rocket 4.4 20:46:13 10° NNW 20:50:10 33° W 20:53:00 17° SW
Cosmos 1241 Rocket 4.4 20:45:10 10° SW 20:51:21 85° NW 20:57:38 10° NE
USA 281 3.3 20:47:30 24° SE 20:51:38 69° ENE 20:58:11 10° NNW
SL-4 R/B 3.2 20:48:53 10° WNW 20:52:39 41° NNE 20:56:39 10° E
Cosmos 1745 Rocket 4.3 20:50:22 27° SSE 20:53:37 53° E 20:59:47 10° NNE
CZ-3 Stage 3 4.5 20:13:45 10° W 20:54:12 45° SSW 21:01:01 24° SSE
Okean 1-7 3.2 20:53:31 26° SSW 20:55:52 69° W 21:00:11 10° N
Nadezhda 1 Rocket 4.0 20:56:26 10° N 21:02:45 70° E 21:05:54 30° SSE
Cosmos 2219 Rocket 2.4 20:58:36 10° NNW 21:04:13 63° WSW 21:06:53 31° S
Cosmos 1908 Rocket 3.6 21:00:31 10° NNW 21:04:51 71° W 21:06:27 37° S
GP-B 3.0 21:00:30 10° N 21:04:56 83° E 21:06:32 39° S
Cosmos 1386 Rocket 4.5 21:02:27 28° S 21:05:57 76° E 21:12:09 10° NNE
COSMOS 2428 2.9 21:00:22 10° NNW 21:06:04 68° ENE 21:08:56 30° SE
BREEZE-M DEB (TANK) 3.0 21:04:50 10° W 21:06:53 40° SW 21:06:53 40° SW
Cosmos 1782 Rocket 3.6 21:03:26 10° N 21:07:45 64° E 21:09:04 41° SE
ATLAS CENTAUR R/B 3.7 21:05:42 10° W 21:08:26 21° NW 21:11:15 10° N
Okean 2 4.1 21:08:12 24° SW 21:10:13 46° WNW 21:14:07 10° N
Meteor 1-4 Rocket 4.4 21:13:07 14° WSW 21:14:37 20° WNW 21:16:55 10° NNW
Cosmos 1953 3.2 21:16:10 10° NNW 21:19:43 37° W 21:20:51 30° SW
Cosmos 1315 Rocket 4.1 21:17:28 19° SW 21:19:45 35° WNW 21:23:27 10° N
H-2A R/B 4.1 21:19:52 10° ENE 21:22:03 14° E 21:22:19 14° E
Cosmos 1570 Rocket 4.1 21:17:18 10° NNW 21:22:40 75° WSW 21:24:46 38° S
PSLV R/B 3.8 21:20:37 10° NNE 21:24:38 83° WNW 21:25:44 46° SSW
Cosmos 1300 Rocket 3.4 21:20:44 10° N 21:25:03 81° E 21:26:10 49° SSE
Cosmos 304 Rocket 4.3 21:24:56 36° SE 21:25:45 39° ESE 21:30:11 10° NE
Cosmos 158 Rocket 3.9 21:23:13 10° NNW 21:28:34 88° ENE 21:30:29 40° SSE
Cosmos 2360 Rocket 3.9 21:24:36 10° NW 21:28:45 21° W 21:31:30 15° SW
Cosmos 1242 Rocket 3.3 21:29:31 30° W 21:29:41 30° WNW 21:32:11 10° N
BlueWalker 3 1.9 21:31:50 23° WSW 21:34:03 80° NNW 21:37:49 10° ENE
Cosmos 405 Rocket 3.8 21:33:48 10° N 21:37:12 31° ENE 21:37:51 29° E
USA 234 4.5 21:31:47 10° NE 21:37:52 43° NNW 21:43:57 10° W
ALOS 2 2.8 21:37:03 43° SE 21:38:16 62° ENE 21:42:37 10° N
CENTAUR R/B 3.7 21:37:35 20° ESE 21:38:16 20° ESE 21:42:49 10° ENE
COSMOS 2455 2.8 21:35:30 33° SSW 21:38:17 70° ESE 21:44:19 10° NE
NOSS 0 Rocket 3.9 21:36:34 10° NNW 21:42:50 87° ENE 21:45:42 35° SSE
Cosmos 2333 Rocket 4.1 21:40:53 10° WNW 21:44:35 18° W 21:47:09 13° SW
Cosmos 773 Rocket 4.0 21:44:57 10° NNW 21:50:07 74° ENE 21:51:58 40° SE
Spot 2 4.4 21:50:57 44° SSE 21:52:38 87° ENE 21:57:43 10° NNW
Cosmos 1709 Rocket 4.0 21:49:59 33° SSW 21:53:04 83° W 21:59:28 10° N
Cosmos 1455 4.3 21:52:12 10° NW 21:54:17 15° W 21:55:03 14° WSW
Cosmos 1408 3.1 21:55:12 39° WNW 21:55:12 39° WNW 21:57:56 10° N
Cosmos 2208 Rocket 4.4 21:52:12 10° NNW 21:57:12 49° WSW 21:58:40 38° SSW
SL-16 R/B 4.0 21:52:59 10° N 21:57:43 26° NE 22:02:26 10° ESE
Cosmos 2221 Rocket 4.5 21:57:29 33° ESE 21:58:15 35° E 22:02:18 10° NNE
H-2A R/B 3.0 21:58:41 41° SW 21:59:32 47° W 22:03:40 10° NNW
CZ-4C R/B 1.7 21:58:28 43° SSW 22:00:00 85° SE 22:05:34 10° NE
Cosmos 1703 3.0 22:00:20 69° SW 22:00:39 76° W 22:04:21 10° N
Cosmos 1892 3.5 22:03:36 33° E 22:03:36 33° E 22:06:40 10° NNE
Cosmos 2242 Rocket 4.0 22:02:21 38° SW 22:03:48 56° WNW 22:08:19 10° N
Cosmos 2237 Rocket 2.2 21:59:10 10° NNW 22:04:52 78° ENE 22:07:12 37° SE
Sich 1 Rocket 4.1 22:00:38 10° N 22:04:54 48° ENE 22:05:58 39° ESE
Cosmos 1777 Rocket 4.0 22:03:24 45° S 22:04:56 67° ESE 22:10:11 10° NNE
Cosmos 1503 Rocket 4.0 22:03:12 43° S 22:04:59 80° ESE 22:10:19 10° NNE
SJ 16-02 4.1 22:04:01 10° WNW 22:05:54 12° NW 22:07:47 10° NNW
Cosmos 2227 Rocket 2.7 22:08:29 36° SE 22:09:54 43° ESE 22:15:14 10° NE
Meteor 1-24 Rocket 3.7 22:10:17 39° SSW 22:12:36 82° W 22:18:16 10° N
GEOS 3 Rocket 4.2 22:10:24 10° NE 22:15:09 37° ESE 22:15:46 35° SE
Cosmos 371 Rocket 3.7 22:15:49 34° SW 22:17:43 58° WNW 22:22:29 10° NNE
Cosmos 1980 3.6 22:12:24 10° NNW 22:18:05 80° WSW 22:20:05 42° SSE
Cosmos 2154 Rocket 4.5 22:22:29 32° SE 22:25:00 50° E 22:31:02 10° NNE
NOSS 3-2 (A) 4.2 22:25:02 26° SE 22:25:43 27° ESE 22:30:29 10° ENE
Cosmos 2297 Rocket 2.3 22:27:16 34° SW 22:29:49 73° WNW 22:35:30 10° NNE
Cosmos 1825 2.0 22:31:23 68° ENE 22:31:23 68° ENE 22:34:39 10° NNE
SL-4 R/B 1.9 22:27:33 10° WNW 22:31:38 70° SSW 22:31:56 67° S
Cosmos 2219 4.0 22:32:08 32° SE 22:33:34 37° ESE 22:38:41 10° NE
Aureole 1 Rocket 4.4 22:35:45 21° E 22:35:52 22° E 22:39:03 10° NE
USA 281 4.5 22:34:22 21° SW 22:36:37 25° WSW 22:41:53 10° NW
Okean 1 Rocket 3.1 22:33:37 10° N 22:37:59 69° E 22:38:57 51° SE
PSLV R/B 3.9 22:38:38 10° N 22:42:47 55° WNW 22:43:45 43° WSW
Cosmos 1354 Rocket 4.3 22:44:52 34° SW 22:47:04 62° WNW 22:52:20 10° NNE
COSMOS 2428 4.3 22:45:44 10° NW 22:49:43 20° W 22:50:54 19° WSW
BREEZE-M DEB (TANK) 3.1 22:52:55 10° NW 22:58:49 - E 22:54:55 29° NNE
Cosmos 2084 Rocket 3.8 22:55:25 35° WSW 22:56:56 57° NW 23:01:02 10° NNE
Cosmos 2181 Rocket 4.4 22:51:13 10° NNW 22:57:08 49° W 22:59:29 33° SW
H-2A R/B 2.3 22:53:58 10° N 22:58:09 59° WNW 22:59:07 45° WSW
Cosmos 1975 Rocket 4.0 23:00:38 31° SE 23:01:47 38° E 23:05:51 10° NNE
Cosmos 2263 Rocket 2.8 23:00:27 34° SSE 23:02:12 44° ESE 23:07:27 10° NE
Cosmos 292 Rocket 4.2 23:01:50 39° SE 23:02:59 48° ESE 23:07:36 10° NNE
NOSS 8 (A) 4.5 23:03:29 10° NW 23:06:11 62° W 23:06:11 62° W
Cosmos 2074 Rocket 4.1 23:05:16 34° SSW 23:07:59 64° W 23:14:10 10° N
Cosmos 332 Rocket 4.4 23:09:39 32° WSW 23:11:34 50° WNW 23:16:21 10° NNE
BlueWalker 3 3.9 23:09:20 10° WNW 23:12:38 28° N 23:15:56 10° NE
Cosmos 1455 Rocket 3.2 23:10:05 10° N 23:14:32 72° E 23:15:56 42° SSE
Okean 2 Rocket 4.2 23:13:24 10° NNW 23:17:17 30° W 23:18:04 28° WSW
Cosmos 1818 4.3 23:17:04 10° NNW 23:22:26 52° NE 23:27:45 10° SE
Cosmos 1025 Rocket 3.2 23:25:42 44° SW 23:26:48 59° WNW 23:31:04 10° N
CENTAUR R/B 2.5 23:24:42 29° SW 23:27:50 76° NW 23:34:56 10° NE
Helios 1A Rocket 3.0 23:26:49 40° SE 23:27:58 63° ENE 23:31:44 10° N
Cosmos 990 Rocket 4.3 23:28:09 33° SW 23:30:16 58° WNW 23:35:21 10° NNE
Cosmos 1461 3.3 23:31:16 39° SE 23:31:44 40° ESE 23:35:25 10° NE
TIMED 4.4 23:33:37 47° SSW 23:34:48 82° WNW 23:39:09 10° NNE
In-Cosmos 22 Rocket 4.3 23:32:43 34° S 23:35:22 80° E 23:41:14 10° NNE
IDEFIX/ARIANE 42P 3.6 23:37:13 10° NNE 23:42:06 38° E 23:44:56 21° SSE
SL-16 R/B 2.3 23:36:37 10° NNW 23:42:14 60° WSW 23:44:44 32° S
SL-19 R/B 3.4 23:40:21 10° NNE 23:43:19 85° NW 23:43:19 85° NW
Nadezhda 3 Rocket 4.5 23:38:32 10° NNW 23:44:28 46° W 23:47:09 29° SW
Cosmos 2237 Rocket 3.9 23:44:45 10° WNW 23:48:10 17° W 23:48:59 16° WSW
CZ-4C R/B 4.2 23:45:14 10° W 23:49:15 24° NNW 23:54:05 10° NNE
Cosmos 2218 Rocket 4.2 23:46:33 26° S 23:50:10 68° E 23:56:19 10° NNE
BREEZE-M DEB (TANK) 1.8 23:46:54 10° WNW 23:51:39 59° SW 23:51:39 59° SW
Cosmos 2082 3.7 23:49:30 32° SSW 23:52:12 82° WNW 23:57:52 10° NNE
GEOS 3 Rocket 4.4 23:48:18 10° NNE 23:53:14 46° NW 23:56:49 18° WSW
Cosmos 1869 3.1 23:50:04 10° N 23:53:47 76° E 23:55:00 40° SSE
Cosmos 2227 Rocket 3.4 23:50:16 16° WSW 23:54:03 34° NW 23:59:11 10° NNE
